VK3HAG Weather Reports


Display with metric or nautical units.
time (UTC)temp
F
wind
direction
speed
MPH
gust
MPH
rain 1hr
in
rain 24hr
in
rain mn
in
humidity
%
barometer
mb
20260510203005 38 0 0.0 0.0 0.00 0.00 0.00 93 1031.3
20260510201505 38 0 0.0 0.0 0.00 0.00 0.00 93 1031.2
20260510200005 38 0 0.0 0.0 0.00 0.00 0.00 93 1031.0
20260510194504 38 0 0.0 0.0 0.00 0.00 0.00 94 1030.8
20260510193005 38 0 0.0 0.0 0.00 0.00 0.00 93 1030.7
20260510191505 38 0 0.0 0.0 0.00 0.00 0.00 93 1030.7
20260510190005 38 0 0.0 0.0 0.00 0.00 0.00 93 1030.5
20260510184504 38 0 0.0 0.0 0.00 0.00 0.00 93 1030.4
20260510183004 39 0 0.0 0.0 0.00 0.00 0.00 93 1030.3
20260510181505 39 0 0.0 0.0 0.00 0.00 0.00 93 1030.2
20260510180005 39 0 0.0 0.0 0.00 0.00 0.00 93 1030.1
20260510174504 39 0 0.0 0.0 0.00 0.00 0.00 93 1029.9
20260510173004 39 0 0.0 0.0 0.00 0.00 0.00 93 1030.0
20260510171504 39 0 0.0 0.0 0.00 0.00 0.00 93 1030.0
20260510170004 40 0 0.0 0.0 0.00 0.00 0.00 93 1030.1
20260510164504 40 0 0.0 0.0 0.00 0.00 0.00 93 1030.0
20260510163005 40 0 0.0 0.0 0.00 0.00 0.00 92 1030.1
20260510161504 41 0 0.0 0.0 0.00 0.00 0.00 92 1030.2
20260510160004 41 0 0.0 0.0 0.00 0.00 0.00 93 1030.2
20260510154504 41 0 0.0 0.0 0.00 0.00 0.00 92 1030.3
20260510153004 42 0 0.0 0.0 0.00 0.00 0.00 92 1030.2
20260510151504 42 0 0.0 0.0 0.00 0.00 0.00 92 1030.1
20260510150004 42 0 0.0 0.0 0.00 0.00 0.00 93 1030.1
20260510144504 42 0 0.0 0.0 0.00 0.00 0.00 93 1030.3
20260510143004 42 0 0.0 0.0 0.00 0.00 0.00 92 1030.3
20260510141504 42 0 0.0 0.0 0.00 0.00 0.00 91 1030.3
20260510140026 42 0 0.0 0.0 0.00 0.00 0.00 92 1030.4
20260510134505 42 0 0.0 0.0 0.00 0.00 0.00 91 1030.4
20260510133005 42 0 0.0 0.0 0.00 0.00 0.00 91 1030.4
20260510131504 43 0 0.0 0.0 0.00 0.00 0.00 91 1030.5
20260510130004 44 0 0.0 0.0 0.00 0.00 0.00 91 1030.5
20260510124504 44 0 0.0 0.0 0.00 0.00 0.00 92 1030.6
20260510123004 44 0 0.0 0.0 0.00 0.00 0.00 91 1030.6
20260510121504 44 0 0.0 0.0 0.00 0.00 0.00 90 1030.6
20260510120005 44 0 0.0 0.0 0.00 0.00 0.00 91 1030.6
20260510114504 43 0 0.0 0.0 0.00 0.00 0.00 89 1030.6
20260510113004 44 0 0.0 0.0 0.00 0.00 0.00 88 1030.5
20260510111504 44 0 0.0 0.0 0.00 0.00 0.00 88 1030.3
20260510110005 45 0 0.0 0.0 0.00 0.00 0.00 88 1030.2
20260510104504 46 0 0.0 0.0 0.00 0.00 0.00 88 1030.2
20260510103004 46 0 0.0 0.0 0.00 0.00 0.00 87 1030.1
20260510101504 47 0 0.0 0.0 0.00 0.00 0.00 87 1030.0
20260510100004 48 0 0.0 0.0 0.00 0.00 0.00 87 1030.0
20260510094504 49 0 0.0 0.0 0.00 0.00 0.00 87 1030.0
20260510091504 50 0 0.0 0.0 0.00 0.00 0.00 87 1029.7
20260510090005 50 0 0.0 0.0 0.00 0.00 0.00 86 1029.6
20260510084504 50 0 0.0 0.0 0.00 0.00 0.00 86 1029.6
20260510083004 51 0 0.0 0.0 0.00 0.00 0.00 83 1029.5
20260510081505 51 0 0.0 0.0 0.00 0.00 0.00 80 1029.3
20260510073005 55 0 0.0 0.0 0.00 0.00 0.00 79 1028.9
20260510071506 56 0 0.0 0.0 0.00 0.00 0.00 78 1028.9
20260510070005 57 0 0.0 0.0 0.00 0.00 0.00 77 1028.7
20260510064504 58 0 0.0 0.0 0.00 0.00 0.00 76 1028.7
20260510063004 58 0 0.0 0.0 0.00 0.00 0.00 75 1028.6
20260510061505 59 0 0.0 0.0 0.00 0.00 0.00 74 1028.6
20260510060005 60 0 0.0 0.0 0.00 0.00 0.00 72 1028.6
20260510054504 61 0 0.0 0.0 0.00 0.00 0.00 71 1028.4
20260510053005 61 0 0.0 0.0 0.00 0.00 0.00 71 1028.4
20260510051505 61 0 0.0 0.0 0.00 0.00 0.00 72 1028.4
20260510050005 60 0 0.0 0.0 0.00 0.00 0.00 73 1028.4
20260510044504 60 0 0.0 0.0 0.00 0.00 0.00 75 1028.4
20260510041505 60 0 0.0 0.0 0.00 0.00 0.00 77 1028.4
20260510040004 60 0 0.0 0.0 0.00 0.00 0.00 77 1028.5
20260510034504 59 0 0.0 0.0 0.00 0.00 0.00 79 1028.5
20260510033004 59 0 0.0 0.0 0.00 0.00 0.00 80 1028.6
20260510031504 59 0 0.0 0.0 0.00 0.00 0.00 79 1028.6
20260510030005 59 0 0.0 0.0 0.00 0.00 0.00 80 1028.7
20260510024504 59 0 0.0 0.0 0.00 0.00 0.00 81 1028.8
20260510023004 59 0 0.0 0.0 0.00 0.00 0.00 83 1029.1
20260510020004 58 0 0.0 0.0 0.00 0.00 0.00 87 1029.5
20260510014505 58 0 0.0 0.0 0.00 0.00 0.00 87 1029.6
20260510013004 58 0 0.0 0.0 0.00 0.00 0.00 90 1029.8
20260510011504 57 0 0.0 0.0 0.00 0.00 0.00 91 1029.8
20260510010005 57 0 0.0 0.0 0.00 0.00 0.00 91 1029.9
20260510004504 57 0 0.0 0.0 0.00 0.00 0.00 93 1029.9
20260510003005 57 0 0.0 0.0 0.00 0.00 0.00 94 1029.9
20260510001504 57 0 0.0 0.0 0.00 0.00 0.00 95 1029.9
20260510000004 57 0 0.0 0.0 0.00 0.00 0.00 95 1030.0
20260509234505 56 0 0.0 0.0 0.00 0.00 0.00 95 1029.9
20260509233004 56 0 0.0 0.0 0.00 0.00 0.00 96 1030.0
20260509231504 55 0 0.0 0.0 0.00 0.00 0.00 96 1029.9
20260509230004 55 0 0.0 0.0 0.00 0.00 0.00 95 1029.9
20260509224505 55 0 0.0 0.0 0.00 0.00 0.00 95 1029.8
20260509223005 55 0 0.0 0.0 0.00 0.00 0.00 95 1029.7
20260509221504 55 0 0.0 0.0 0.00 0.00 0.00 95 1029.6
20260509214504 54 0 0.0 0.0 0.00 0.00 0.00 95 1029.0
20260509213004 54 0 0.0 0.0 0.00 0.00 0.00 95 1028.9
20260509211504 54 0 0.0 0.0 0.00 0.00 0.00 95 1028.8
20260509210005 54 0 0.0 0.0 0.00 0.00 0.00 95 1028.5
20260509204504 54 0 0.0 0.0 0.00 0.00 0.00 95 1028.5